Location: Brahman Valley
(40.6513°N, 111.8855°W)
Time: 02:47:18
(UTC+00:00)

Altair - Visible Passes

Search period start: 12 May 2021 00:00
Search period end: 22 May 2021 00:00
Orbit: 1501 x 1683 km, 47.2° (Epoch: 11 May)

Date Brightness Start Highest point End Pass type
(mag) Time Alt. Az. Time Alt. Az. Time Alt. Az.
12 May 7.9 05:51:40 42° SE 05:51:40 42° SE 06:00:21 10° ENE visible
12 May 7.6 07:49:31 30° WSW 07:55:29 83° NNW 08:05:36 10° ENE visible
12 May 8.1 09:51:14 10° W 10:01:16 60° N 10:11:02 10° ENE visible
13 May 7.9 05:25:29 39° SE 05:25:56 40° SE 05:35:02 10° ENE visible
13 May 7.5 07:23:14 24° WSW 07:30:13 86° NNW 07:40:22 10° ENE visible
13 May 8.1 09:25:54 10° W 09:35:57 60° N 09:45:46 10° ENE visible
13 May 7.9 11:31:44 10° WNW 11:41:51 76° NNE 11:51:35 10° ESE visible
14 May 8.0 04:51:57 10° SSW 05:00:49 36° SE 05:09:42 10° ENE visible
14 May 7.5 06:54:46 10° WSW 07:04:59 90° SSE 07:15:09 10° ENE visible
14 May 8.0 09:00:34 10° W 09:10:38 61° N 09:20:30 10° ENE visible
14 May 7.9 11:06:28 10° WNW 11:16:36 73° NNE 11:26:21 10° ESE visible
15 May 8.1 04:27:06 10° S 04:35:42 33° SE 04:44:21 10° ENE visible
15 May 7.5 06:29:33 10° WSW 06:39:45 86° SSE 06:49:55 10° ENE visible
15 May 8.0 08:35:15 10° W 08:45:20 61° N 08:55:14 10° ENE visible
15 May 7.9 10:41:11 10° WNW 10:51:20 71° NNE 11:01:08 10° ESE visible
16 May 8.2 04:02:19 10° S 04:10:36 30° SE 04:18:58 10° ENE visible
16 May 7.5 06:04:22 10° SW 06:14:32 82° SSE 06:24:42 10° ENE visible
16 May 8.0 08:09:56 10° W 08:20:01 62° N 08:29:58 10° ENE visible
16 May 7.9 10:15:55 10° WNW 10:26:03 69° NNE 10:35:52 10° E visible
17 May 8.3 03:37:33 10° S 03:45:30 28° SE 03:53:32 10° ENE visible
17 May 7.5 05:39:11 10° SW 05:49:18 78° SSE 05:59:28 10° ENE visible
17 May 8.0 07:44:36 10° W 07:54:43 63° N 08:04:42 10° ENE visible
17 May 8.0 09:50:38 10° WNW 10:00:46 67° NNE 10:10:37 10° E visible
18 May 8.4 03:12:51 10° S 03:20:26 25° SE 03:28:04 10° ENE visible
18 May 7.5 05:14:03 10° SW 05:24:06 74° SE 05:34:13 10° ENE visible
18 May 7.9 07:19:17 10° W 07:29:24 65° NNW 07:39:26 10° ENE visible
18 May 8.0 09:25:20 10° WNW 09:35:29 65° NNE 09:45:20 10° E visible
18 May 7.6 11:30:39 10° WNW 11:40:40 71° SW 11:50:18 10° SE visible
19 May 7.5 04:48:55 10° SW 04:58:54 70° SE 05:08:59 10° ENE visible
19 May 7.9 06:53:58 10° W 07:04:06 66° NNW 07:14:11 10° ENE visible
19 May 8.0 09:00:03 10° WNW 09:10:11 64° N 09:20:04 10° E visible
19 May 7.6 11:05:24 10° WNW 11:15:29 75° SW 11:25:12 10° SE visible
20 May 7.6 04:23:49 10° SW 04:33:43 65° SE 04:43:44 10° ENE visible
20 May 7.9 06:28:41 10° W 06:38:48 68° NNW 06:48:55 10° ENE visible
20 May 8.0 08:34:45 10° WNW 08:44:52 63° N 08:54:47 10° E visible
20 May 7.6 10:40:09 10° WNW 10:50:17 80° SSW 11:00:05 10° SE visible
21 May 7.6 03:58:44 10° SW 04:08:32 61° SE 04:18:29 10° ENE visible
21 May 7.9 06:03:23 10° W 06:13:31 70° NNW 06:23:40 10° ENE visible
21 May 8.0 08:09:27 10° WNW 08:19:33 62° N 08:29:29 10° E visible
21 May 7.6 10:14:54 10° WNW 10:25:05 84° SSW 10:34:56 10° SE visible
